OPS 5114 (NAVSTAR 4)

Satellite information

Favourite Embed

Satellite Type and Status

PAYLOADIN ORBIT

Key statistics

Satellite OPS 5114 (NAVSTAR 4) at a glance.

Uptime

16951

Days in orbit

Revolutions

≈ 1.9

Per day

Orbit

MEO

Medium Earth Orbit

Inclination

63.4

Latest

Satellite identification and parameters

Extended collection of information and parameters for OPS 5114 (NAVSTAR 4).

Object identification

Identified? True

Debris? False

Object name: OPS 5114 (NAVSTAR 4)

International designator: 1978-112A

Object number (NORAD): 11141

Object ID (CCSDS): 11141

Country: UNITED STATES OF AMERICA (US)

Current information (Y/N): Y

RCS size: MEDIUM

Orbital parameters

Period: 746.518 minutes

Inclination: 63.4373 deg

SMA: 27259.651 km

Apoapsis: 21264.675 km

Periapsis: 20498.357 km

RAAN: 83.768 deg

Eccentricy: 0.0140559

Argument of periapsis: 48.5689 deg

Mean anomaly: 116.3861 deg

Mean motion: 1.92895603 rev/day

Mean motion (dot): -0.00000006 rev/day2

B* drag term: 0.0 1/REarth

Two-line elements (TLE)

Creation date: May 9, 2025, 2:46 a.m.

Reference frame: TEME

Reference center: EARTH

Epoch: May 8, 2025, 9:57 a.m. UTC

TLE line 0: 0 OPS 5114 (NAVSTAR 4)

TLE line 1: 1 11141U 78112A 25128.41466152 -.00000006 00000-0 00000-0 0 9991

TLE line 2: 2 11141 63.4373 83.7680 0140559 48.5689 116.3861 1.92895603221286

Live tracking on map

Real-time ground track for satellite OPS 5114 (NAVSTAR 4).

In-orbit conjunctions

There are no conjunctions computed for OPS 5114 (NAVSTAR 4), at the moment. Check back to stay up to date, as we update our databases every day.

Go to all conjunctions

Associated space launch

First generation GPS satellite

OPS 5114 (NAVSTAR 4) was lifted into orbit during the mission ‘Atlas F/SVS | Navstar 4’, on board a Atlas F/SVS space rocket.

The launch took place on Dec. 11, 1978, 3:59 a.m. from Space Launch Complex 3E.

For more information about the launch, click the button.

Launch to space Atlas F/SVS | Navstar 4
Atlas F/SVS | Navstar 4

Agency: N/A

Status: Launch Successful

Launch date: Dec. 11, 1978, 3:59 a.m. UTC

Rocket: Atlas F/SVS

Launch pad: Space Launch Complex 3E

Location: Vandenberg SFB, CA, USA

...

Latest news about this satellite

There are no fresh news available about this satellite. Check back as we update our databases every day.


Newsletter sign-up

Weekly statistics, charts and insights to help you stay on top of the space industry.